EW8792 Weather Reports


Display with metric or nautical units.
time (UTC)temp
F
wind
direction
speed
MPH
gust
MPH
rain 1hr
in
rain 24hr
in
rain mn
in
humidity
%
barometer
mb
20190120054005 33 0 0.0 0.0 0.00 0.00 0.00 92 1020.5
20190120053504 33 0 0.0 0.0 0.00 0.00 0.00 92 1020.6
20190120053006 33 0 0.0 0.0 0.00 0.00 0.00 92 1020.6
20190120052503 33 314 0.0 2.0 0.00 0.00 0.00 92 1020.5
20190120052005 33 314 0.0 2.0 0.00 0.00 0.00 92 1020.7
20190120051504 33 0 0.0 0.0 0.00 0.00 0.00 92 1020.5
20190120051006 33 0 0.0 0.0 0.00 0.00 0.00 92 1020.5
20190120050504 33 0 0.0 0.0 0.00 0.00 0.00 92 1020.5
20190120050005 33 314 0.0 1.0 0.00 0.00 0.00 92 1020.6
20190120045503 33 314 0.0 1.0 0.00 0.00 0.00 92 1020.6
20190120045005 33 0 0.0 0.0 0.00 0.00 0.00 92 1020.6
20190120044503 33 0 0.0 0.0 0.00 0.00 0.00 92 1020.6
20190120044006 33 0 0.0 0.0 0.00 0.00 0.00 92 1020.4
20190120043504 33 0 0.0 0.0 0.00 0.00 0.00 92 1020.6
20190120043006 33 0 0.0 0.0 0.00 0.00 0.00 92 1020.8
20190120042503 33 0 0.0 0.0 0.00 0.00 0.00 92 1020.8
20190120042005 33 0 0.0 0.0 0.00 0.00 0.00 92 1021.0
20190120041504 33 1 0.0 1.0 0.00 0.00 0.00 92 1020.8
20190120041005 33 1 0.0 1.0 0.00 0.00 0.00 92 1020.8
20190120040504 33 270 0.0 1.0 0.00 0.00 0.00 92 1021.0
20190120040006 33 270 0.0 1.0 0.00 0.00 0.00 92 1021.0
20190120035504 33 0 0.0 0.0 0.00 0.00 0.00 92 1020.9
20190120035005 33 0 0.0 0.0 0.00 0.00 0.00 92 1020.9
20190120034503 33 0 0.0 0.0 0.00 0.00 0.00 92 1020.8
20190120034006 33 0 0.0 0.0 0.00 0.00 0.00 92 1021.1
20190120033503 33 314 0.0 1.0 0.00 0.00 0.00 92 1021.3
20190120033006 33 314 0.0 1.0 0.00 0.00 0.00 92 1021.1
20190120032504 33 327 0.0 1.0 0.00 0.00 0.00 92 1020.8
20190120032005 33 1 0.0 1.0 0.00 0.00 0.00 92 1021.1
20190120031503 33 341 0.0 1.0 0.00 0.00 0.00 92 1021.1
20190120031008 33 321 0.0 1.0 0.00 0.00 0.00 92 1020.7
20190120030503 33 314 0.0 1.0 0.00 0.00 0.00 92 1021.0
20190120030006 33 294 0.0 2.0 0.00 0.00 0.00 92 1021.3
20190120025503 33 297 0.0 2.0 0.00 0.00 0.00 92 1021.2
20190120025006 33 314 0.0 1.0 0.00 0.00 0.00 92 1021.5
20190120024504 33 307 0.0 2.0 0.00 0.00 0.00 92 1021.3
20190120024005 33 309 0.0 2.0 0.00 0.00 0.00 92 1021.6
20190120023504 33 311 0.0 2.0 0.00 0.00 0.00 92 1021.2
20190120023005 33 313 0.0 2.0 0.00 0.00 0.00 92 1021.6
20190120022504 33 312 1.0 2.0 0.00 0.00 0.00 92 1021.5
20190120022005 33 304 0.0 1.0 0.00 0.00 0.00 92 1021.5
20190120021504 33 314 0.0 1.0 0.00 0.00 0.00 92 1021.6
20190120021005 33 316 0.0 2.0 0.00 0.00 0.00 92 1021.7
20190120020504 33 320 0.0 2.0 0.00 0.00 0.00 92 1021.5
20190120020006 33 320 0.0 2.0 0.00 0.00 0.00 92 1021.7
20190120015503 33 308 0.0 1.0 0.00 0.00 0.00 91 1021.5
20190120015006 33 305 0.0 2.0 0.00 0.00 0.00 91 1021.7
20190120014504 33 308 0.0 2.0 0.00 0.00 0.00 91 1021.5
20190120014005 33 322 0.0 2.0 0.00 0.00 0.00 91 1021.7
20190120013503 33 313 0.0 2.0 0.00 0.00 0.00 91 1021.9
20190120013006 33 310 1.0 2.0 0.00 0.00 0.00 91 1021.8
20190120012504 33 315 1.0 2.0 0.00 0.00 0.00 91 1021.9
20190120012006 33 317 1.0 2.0 0.00 0.00 0.00 91 1022.0
20190120011503 33 321 0.0 2.0 0.00 0.00 0.00 91 1021.8
20190120011006 33 312 1.0 2.0 0.00 0.00 0.00 91 1022.0
20190120010504 33 297 0.0 3.0 0.00 0.00 0.00 91 1022.1
20190120010006 33 309 0.0 4.0 0.00 0.00 0.00 91 1022.1
20190120005504 33 313 2.0 4.0 0.00 0.00 0.00 91 1022.1
20190120005007 33 305 1.0 3.0 0.00 0.00 0.00 91 1022.1
20190120004504 33 303 1.0 2.0 0.00 0.00 0.00 91 1022.1
20190120004006 33 315 1.0 2.0 0.00 0.00 0.00 91 1022.0
20190120003503 33 320 0.0 2.0 0.00 0.00 0.00 90 1022.0
20190120003006 33 314 0.0 3.0 0.00 0.00 0.00 90 1022.0
20190120002504 33 308 0.0 3.0 0.00 0.00 0.00 90 1021.9
20190120002007 33 313 0.0 3.0 0.00 0.00 0.00 90 1022.2
20190120001503 33 312 1.0 3.0 0.00 0.00 0.00 90 1022.1
20190120001005 33 309 0.0 2.0 0.00 0.00 0.00 90 1022.0
20190120000503 33 320 0.0 2.0 0.00 0.00 0.00 90 1022.2
20190120000005 33 330 0.0 2.0 0.00 0.00 0.00 90 1022.0
20190119235504 33 340 0.0 2.0 0.00 0.00 0.00 90 1021.9
20190119235006 33 329 0.0 2.0 0.00 0.00 0.00 90 1022.0
20190119234504 33 334 0.0 2.0 0.00 0.00 0.00 90 1022.3
20190119234021 33 352 0.0 1.0 0.00 0.00 0.00 90 1022.3
20190119233504 32 46 0.0 1.0 0.00 0.00 0.00 89 1022.1
20190119233006 33 359 0.0 1.0 0.00 0.00 0.00 89 1022.3
20190119232503 32 315 0.0 2.0 0.00 0.00 0.00 89 1022.4
20190119232005 32 301 0.0 2.0 0.00 0.00 0.00 89 1022.4
20190119231504 32 345 0.0 2.0 0.00 0.00 0.00 89 1022.3
20190119231006 32 12 0.0 2.0 0.00 0.00 0.00 89 1022.2
20190119230503 32 7 0.0 2.0 0.00 0.00 0.00 89 1022.3
20190119230005 32 325 0.0 1.0 0.00 0.00 0.00 89 1022.5
20190119225503 32 338 0.0 1.0 0.00 0.00 0.00 88 1022.4
20190119225005 32 340 0.0 1.0 0.00 0.00 0.00 88 1022.2
20190119224503 32 337 0.0 2.0 0.00 0.00 0.00 88 1022.3
20190119224005 32 319 0.0 2.0 0.00 0.00 0.00 88 1022.4
20190119223503 32 308 0.0 2.0 0.00 0.00 0.00 88 1022.3
20190119223005 32 311 0.0 2.0 0.00 0.00 0.00 88 1022.7
20190119222505 32 314 0.0 2.0 0.00 0.00 0.00 88 1022.7
20190119222004 31 322 0.0 2.0 0.00 0.00 0.00 87 1022.5
20190119221506 31 323 0.0 2.0 0.00 0.00 0.00 87 1022.5
20190119221004 31 322 0.0 2.0 0.00 0.00 0.00 87 1022.4
20190119220505 31 0 0.0 0.0 0.00 0.00 0.00 86 1022.6
20190119220009 31 0 0.0 0.0 0.00 0.00 0.00 86 1022.7
20190119215504 31 0 0.0 0.0 0.00 0.00 0.00 86 1022.6
20190119215004 31 314 0.0 1.0 0.00 0.00 0.00 86 1022.7
20190119214504 31 314 0.0 1.0 0.00 0.00 0.00 85 1022.7
20190119214004 31 314 0.0 1.0 0.00 0.00 0.00 85 1022.7
20190119213504 31 314 0.0 1.0 0.00 0.00 0.00 85 1022.7
20190119213004 30 0 0.0 0.0 0.00 0.00 0.00 85 1022.7
20190119212504 31 0 0.0 0.0 0.00 0.00 0.00 85 1022.9
20190119212003 31 0 0.0 0.0 0.00 0.00 0.00 85 1022.8
20190119211504 31 0 0.0 0.0 0.00 0.00 0.00 85 1022.7
20190119211003 31 225 0.0 1.0 0.00 0.00 0.00 85 1022.7
20190119210505 31 225 0.0 1.0 0.00 0.00 0.00 85 1022.7
20190119210004 31 0 0.0 0.0 0.00 0.00 0.00 85 1022.8
20190119205504 31 0 0.0 0.0 0.00 0.00 0.00 85 1022.7
20190119205004 32 0 0.0 0.0 0.00 0.00 0.00 85 1022.6
20190119204505 32 0 0.0 0.0 0.00 0.00 0.00 85 1022.7
20190119204004 32 325 0.0 2.0 0.00 0.00 0.00 84 1022.7
20190119203506 32 322 0.0 2.0 0.00 0.00 0.00 84 1022.7
20190119203005 33 325 0.0 2.0 0.00 0.00 0.00 84 1022.6
20190119202505 33 321 0.0 2.0 0.00 0.00 0.00 84 1022.7
20190119202004 33 322 1.0 2.0 0.00 0.00 0.00 84 1022.7
20190119201505 33 351 0.0 2.0 0.00 0.00 0.00 84 1022.7
20190119201004 33 16 0.0 2.0 0.00 0.00 0.00 84 1022.8
20190119200505 34 2 0.0 2.0 0.00 0.00 0.00 84 1022.7
20190119200005 34 6 0.0 2.0 0.00 0.00 0.00 82 1022.6
20190119195504 34 8 0.0 3.0 0.00 0.00 0.00 82 1022.7
20190119195004 34 344 2.0 3.0 0.00 0.00 0.00 82 1022.7
20190119194505 35 340 0.0 4.0 0.00 0.00 0.00 82 1022.8
20190119194004 35 349 1.0 4.0 0.00 0.00 0.00 82 1022.7
20190119193505 35 323 2.0 2.0 0.00 0.00 0.00 82 1022.8
20190119193004 35 106 1.0 2.0 0.00 0.00 0.00 82 1022.7
20190119192505 35 127 1.0 2.0 0.00 0.00 0.00 82 1022.7
20190119192003 35 179 0.0 1.0 0.00 0.00 0.00 82 1022.7
20190119191508 35 326 0.0 2.0 0.00 0.00 0.00 82 1022.7
20190119191005 35 338 0.0 2.0 0.00 0.00 0.00 82 1022.7
20190119190505 35 14 1.0 2.0 0.00 0.00 0.00 82 1022.9
20190119190005 35 76 1.0 4.0 0.00 0.00 0.00 82 1022.9
20190119185505 35 62 1.0 4.0 0.00 0.00 0.00 82 1023.0
20190119185004 35 23 2.0 5.0 0.00 0.00 0.00 82 1022.8
20190119184505 35 12 1.0 5.0 0.00 0.00 0.00 82 1022.9
20190119184004 35 11 2.0 5.0 0.00 0.00 0.00 82 1023.0
20190119183505 35 14 0.0 4.0 0.00 0.00 0.00 82 1023.1
20190119183005 35 5 1.0 3.0 0.00 0.00 0.00 82 1022.8
20190119182504 35 6 2.0 4.0 0.00 0.00 0.00 82 1022.8
20190119182004 35 47 1.0 4.0 0.00 0.00 0.00 82 1022.9
20190119181505 35 95 2.0 5.0 0.00 0.00 0.00 82 1022.7
20190119181005 35 105 2.0 5.0 0.00 0.00 0.00 81 1022.6
20190119180504 35 104 2.0 7.0 0.00 0.00 0.00 81 1022.5
20190119180006 35 94 2.0 8.0 0.00 0.00 0.00 81 1022.5
20190119175504 35 82 4.0 8.0 0.00 0.00 0.00 81 1022.5
20190119175006 35 93 4.0 10.0 0.00 0.00 0.00 81 1022.6
20190119174504 35 109 2.0 10.0 0.00 0.00 0.00 81 1022.6
20190119174005 35 86 5.0 8.0 0.00 0.00 0.00 81 1022.8
20190119173503 35 58 5.0 8.0 0.00 0.00 0.00 81 1022.5
20190119173006 35 72 2.0 7.0 0.00 0.00 0.00 81 1022.9
20190119172503 35 65 1.0 4.0 0.00 0.00 0.00 80 1022.9
20190119172006 35 42 2.0 4.0 0.00 0.00 0.00 80 1022.9
20190119171504 35 27 2.0 3.0 0.00 0.00 0.00 80 1022.9
20190119171008 36 37 2.0 4.0 0.00 0.00 0.00 79 1022.9
20190119170503 36 56 2.0 5.0 0.00 0.00 0.00 79 1023.0
20190119170006 36 7 2.0 5.0 0.00 0.00 0.00 79 1023.0
20190119165504 36 343 2.0 4.0 0.00 0.00 0.00 79 1022.9
20190119165006 36 59 0.0 5.0 0.00 0.00 0.00 79 1022.7
20190119164504 36 66 2.0 5.0 0.00 0.00 0.00 79 1022.8
20190119164006 36 42 1.0 4.0 0.00 0.00 0.00 79 1022.5
20190119163503 36 357 1.0 4.0 0.00 0.00 0.00 79 1022.8
20190119163006 36 345 1.0 7.0 0.00 0.00 0.00 79 1022.6
20190119162504 36 24 2.0 7.0 0.00 0.00 0.00 79 1022.5
20190119162006 36 93 2.0 3.0 0.00 0.00 0.00 79 1022.4
20190119161504 36 99 1.0 3.0 0.00 0.00 0.00 79 1022.7
20190119161005 37 102 1.0 4.0 0.00 0.00 0.00 79 1022.5
20190119160503 37 114 1.0 4.0 0.00 0.00 0.00 79 1022.4
20190119160006 37 97 2.0 4.0 0.00 0.00 0.00 79 1022.4
20190119155503 37 67 2.0 4.0 0.00 0.00 0.00 79 1022.3
20190119155006 37 53 1.0 4.0 0.00 0.00 0.00 78 1022.5
20190119154503 37 332 2.0 4.0 0.00 0.00 0.00 78 1022.4
20190119154006 37 61 1.0 3.0 0.00 0.00 0.00 78 1022.3
20190119153503 37 126 2.0 3.0 0.00 0.00 0.00 78 1022.4
20190119153005 37 140 1.0 3.0 0.00 0.00 0.00 78 1022.3
20190119152503 37 128 2.0 4.0 0.00 0.00 0.00 82 1022.4
20190119152006 37 104 1.0 4.0 0.00 0.00 0.00 82 1022.3
20190119151504 38 58 1.0 4.0 0.00 0.00 0.00 82 1022.3
20190119151005 38 28 1.0 3.0 0.00 0.00 0.00 81 1022.3
20190119150503 38 37 0.0 4.0 0.00 0.00 0.00 81 1022.3
20190119150006 38 86 2.0 4.0 0.00 0.00 0.00 81 1022.3
20190119145504 38 103 2.0 4.0 0.00 0.00 0.00 81 1022.3
20190119145005 38 82 2.0 5.0 0.00 0.00 0.00 80 1022.2
20190119144503 39 80 2.0 6.0 0.00 0.00 0.00 80 1022.0
20190119144007 39 79 2.0 7.0 0.00 0.00 0.00 79 1022.2
20190119143504 39 82 4.0 8.0 0.00 0.00 0.00 79 1022.2
20190119143007 39 77 3.0 8.0 0.00 0.00 0.00 79 1022.4
20190119142504 40 67 3.0 6.0 0.00 0.00 0.00 78 1022.3
20190119142006 40 95 2.0 8.0 0.00 0.00 0.00 77 1022.3
20190119141503 40 102 4.0 11.0 0.00 0.00 0.00 77 1022.5
20190119141005 40 88 3.0 11.0 0.00 0.00 0.00 77 1022.5
20190119140504 40 87 7.0 9.0 0.00 0.00 0.00 77 1022.4
20190119140006 40 92 4.0 10.0 0.00 0.00 0.00 77 1022.6
20190119135503 40 80 4.0 10.0 0.00 0.00 0.00 77 1022.4
20190119135005 40 81 3.0 10.0 0.00 0.00 0.00 78 1022.3
20190119134504 40 88 2.0 8.0 0.00 0.00 0.00 77 1022.3
20190119134007 40 95 4.0 8.0 0.00 0.00 0.00 77 1022.4
20190119133503 40 118 5.0 8.0 0.00 0.00 0.00 77 1022.6
20190119133005 40 139 3.0 8.0 0.00 0.00 0.00 77 1022.6
20190119064504 36 0 0.0 0.0 0.00 0.00 0.00 84 1022.5
20190119064006 35 0 0.0 0.0 0.00 0.00 0.00 85 1022.5
20190119063504 35 0 0.0 0.0 0.00 0.00 0.00 85 1022.4
20190119063006 35 0 0.0 0.0 0.00 0.00 0.00 85 1022.4
20190119062503 35 0 0.0 0.0 0.00 0.00 0.00 85 1022.3
20190119062006 35 0 0.0 0.0 0.00 0.00 0.00 85 1022.1
20190119061503 35 0 0.0 0.0 0.00 0.00 0.00 85 1022.2
20190119061006 35 0 0.0 0.0 0.00 0.00 0.00 85 1022.0
20190119060503 35 0 0.0 0.0 0.00 0.00 0.00 84 1022.0
20190119060006 35 0 0.0 0.0 0.00 0.00 0.00 84 1022.0
20190119055504 35 0 0.0 0.0 0.00 0.00 0.00 84 1022.0
20190119055006 35 75 0.0 2.0 0.00 0.00 0.00 84 1021.9
20190119054503 35 82 0.0 2.0 0.00 0.00 0.00 84 1022.1